FAD129 OERK-OEJN

Flight info

Callsign FAD129
Flight time N/A
Altitude 38000
Route DURMA G782 VEMEM
Aircraft A320/M-SDE3FGHIRWY/LB1

Departure

Time 2026-04-30 13:59
Airport King Khalid International Airport (OERK)

Arrival

Time N/A
Airport King Abdulaziz International Airport (OEJN)
Time Latitude Longitude Altitude Speed Heading
2026-04-30 13:01 24.94492 46.71613 2033 ft 0 kts 240°
2026-04-30 13:33 24.94505 46.71637 2039 ft 4 kts 237°
2026-04-30 13:33 24.94538 46.71683 2032 ft 4 kts 217°
2026-04-30 13:34 24.94560 46.71694 2034 ft 4 kts 166°
2026-04-30 13:34 24.94570 46.71690 2037 ft 0 kts 151°
2026-04-30 13:39 24.94549 46.71702 2035 ft 9 kts 151°
2026-04-30 13:39 24.94426 46.71781 2037 ft 12 kts 149°
2026-04-30 13:40 24.94366 46.71823 2034 ft 0 kts 139°
2026-04-30 13:43 24.94365 46.71824 2035 ft 0 kts 138°
2026-04-30 13:49 24.94366 46.71833 2036 ft 4 kts 91°
2026-04-30 13:49 24.94378 46.71861 2041 ft 4 kts 58°
2026-04-30 13:49 24.94390 46.71883 2035 ft 3 kts 57°
2026-04-30 13:50 24.94404 46.71910 2038 ft 7 kts 62°
2026-04-30 13:50 24.94526 46.71975 2038 ft 13 kts 329°
2026-04-30 13:50 24.94614 46.71918 2034 ft 15 kts 330°
2026-04-30 13:51 24.94700 46.71863 2036 ft 13 kts 330°
2026-04-30 13:51 24.94801 46.71801 2032 ft 21 kts 331°
2026-04-30 13:51 24.94929 46.71719 2034 ft 22 kts 329°
2026-04-30 13:51 24.95066 46.71632 2035 ft 24 kts 330°
2026-04-30 13:52 24.95213 46.71540 2035 ft 25 kts 327°
2026-04-30 13:52 24.95362 46.71446 2036 ft 23 kts 330°
2026-04-30 13:52 24.95468 46.71361 2036 ft 14 kts 288°
2026-04-30 13:52 24.95449 46.71271 2034 ft 8 kts 304°
2026-04-30 13:53 24.95509 46.71235 2038 ft 15 kts 329°
2026-04-30 13:53 24.95618 46.71167 2031 ft 19 kts 330°
2026-04-30 13:53 24.95731 46.71093 2033 ft 19 kts 327°
2026-04-30 13:53 24.95843 46.71015 2035 ft 18 kts 335°
2026-04-30 13:54 24.95954 46.70953 2032 ft 17 kts 328°
2026-04-30 13:54 24.96057 46.70890 2035 ft 16 kts 330°
2026-04-30 13:54 24.96152 46.70828 2034 ft 17 kts 330°
2026-04-30 13:54 24.96277 46.70750 2032 ft 22 kts 330°
2026-04-30 13:55 24.96412 46.70666 2032 ft 23 kts 330°
2026-04-30 13:55 24.96555 46.70574 2034 ft 25 kts 328°
2026-04-30 13:55 24.96707 46.70476 2035 ft 26 kts 334°
2026-04-30 13:55 24.96868 46.70376 2034 ft 27 kts 330°
2026-04-30 13:56 24.97038 46.70269 2035 ft 29 kts 330°
2026-04-30 13:56 24.97216 46.70157 2032 ft 30 kts 330°
2026-04-30 13:56 24.97369 46.70059 2033 ft 15 kts 332°
2026-04-30 13:56 24.97438 46.70110 2032 ft 14 kts 60°
2026-04-30 13:57 24.97452 46.70138 2034 ft 0 kts 60°
2026-04-30 13:57 24.97453 46.70139 2028 ft 2 kts 60°
2026-04-30 13:57 24.97480 46.70191 2032 ft 16 kts 60°
2026-04-30 13:57 24.97520 46.70306 2029 ft 14 kts 120°
2026-04-30 13:58 24.97442 46.70356 2033 ft 17 kts 150°
2026-04-30 13:58 24.96437 46.71002 2055 ft 142 kts 151°
2026-04-30 13:58 24.95503 46.71538 2577 ft 153 kts 146°
2026-04-30 13:59 24.94573 46.72133 3246 ft 156 kts 145°
2026-04-30 13:59 24.93629 46.72751 3840 ft 161 kts 146°
2026-04-30 13:59 24.92618 46.73418 4086 ft 181 kts 144°
2026-04-30 13:59 24.91500 46.74164 4357 ft 196 kts 146°
2026-04-30 14:00 24.90115 46.74620 4447 ft 228 kts 177°
2026-04-30 14:00 24.87308 46.72428 5076 ft 291 kts 240°
2026-04-30 14:00 24.86626 46.70301 5841 ft 297 kts 257°
2026-04-30 14:01 24.86363 46.68052 6786 ft 296 kts 267°
2026-04-30 14:01 24.86407 46.65790 7559 ft 296 kts 274°
2026-04-30 14:01 24.86757 46.63566 7851 ft 294 kts 282°
2026-04-30 14:01 24.87297 46.61397 7979 ft 292 kts 279°
2026-04-30 14:02 24.87444 46.59171 8368 ft 293 kts 264°
2026-04-30 14:02 24.87156 46.56995 9475 ft 285 kts 254°
2026-04-30 14:02 24.86497 46.54940 10291 ft 289 kts 244°
2026-04-30 14:02 24.85481 46.52929 10566 ft 312 kts 239°
2026-04-30 14:03 24.84358 46.50806 11021 ft 326 kts 239°
2026-04-30 14:03 24.83207 46.48631 11777 ft 330 kts 239°
2026-04-30 14:03 24.82055 46.46444 12601 ft 331 kts 240°
2026-04-30 14:03 24.80905 46.44251 13445 ft 331 kts 240°
2026-04-30 14:04 24.79753 46.42050 14213 ft 332 kts 240°
2026-04-30 14:04 24.78593 46.39839 14884 ft 335 kts 240°
2026-04-30 14:04 24.77418 46.37607 15532 ft 339 kts 240°
2026-04-30 14:04 24.76231 46.35352 16156 ft 343 kts 240°
2026-04-30 14:05 24.75030 46.33073 16795 ft 346 kts 240°
2026-04-30 14:05 24.73817 46.30777 17422 ft 349 kts 240°
2026-04-30 14:05 24.72595 46.28460 18052 ft 352 kts 240°
2026-04-30 14:05 24.71364 46.26120 18616 ft 354 kts 240°
2026-04-30 14:06 24.70126 46.23765 19150 ft 357 kts 240°
2026-04-30 14:06 24.67616 46.19015 20252 ft 361 kts 240°
2026-04-30 14:07 24.65091 46.14243 21328 ft 365 kts 241°
2026-04-30 14:07 24.63809 46.11822 21854 ft 368 kts 241°
2026-04-30 14:07 24.62518 46.09385 22386 ft 370 kts 241°
2026-04-30 14:08 24.59912 46.04465 23408 ft 375 kts 241°
2026-04-30 14:08 24.58598 46.01982 23848 ft 377 kts 241°
2026-04-30 14:08 24.55945 45.96980 24714 ft 380 kts 241°
2026-04-30 14:09 24.54607 45.94467 25132 ft 382 kts 241°
2026-04-30 14:09 24.53263 45.91950 25540 ft 383 kts 241°
2026-04-30 14:09 24.50561 45.86878 26354 ft 386 kts 241°
2026-04-30 14:10 24.49205 45.84328 26755 ft 387 kts 241°
2026-04-30 14:10 24.47847 45.81767 27140 ft 389 kts 241°
2026-04-30 14:10 24.46483 45.79197 27535 ft 390 kts 241°
2026-04-30 14:10 24.45118 45.76616 27902 ft 392 kts 242°
2026-04-30 14:11 24.43827 45.73975 28269 ft 393 kts 244°
2026-04-30 14:11 24.42613 45.71279 28623 ft 395 kts 245°
2026-04-30 14:11 24.41440 45.68551 28964 ft 396 kts 246°
2026-04-30 14:11 24.40274 45.65805 29288 ft 398 kts 246°
2026-04-30 14:12 24.39095 45.63055 29625 ft 399 kts 245°
2026-04-30 14:12 24.37897 45.60304 29939 ft 400 kts 245°
2026-04-30 14:12 24.36682 45.57549 30207 ft 402 kts 245°
2026-04-30 14:12 24.35870 45.55721 30378 ft 403 kts 245°
2026-04-30 14:13 24.34217 45.52024 30683 ft 405 kts 245°
2026-04-30 14:13 24.32972 45.49249 30919 ft 406 kts 245°
2026-04-30 14:13 24.31726 45.46469 31234 ft 406 kts 245°
2026-04-30 14:13 24.30486 45.43699 31563 ft 404 kts 245°
2026-04-30 14:14 24.29251 45.40933 31890 ft 404 kts 245°
2026-04-30 14:14 24.28018 45.38172 32210 ft 403 kts 245°
2026-04-30 14:14 24.26783 45.35416 32515 ft 403 kts 245°
2026-04-30 14:14 24.25566 45.32701 32816 ft 402 kts 245°
2026-04-30 14:15 24.24335 45.29954 33126 ft 402 kts 245°
2026-04-30 14:15 24.23104 45.27206 33429 ft 401 kts 245°
2026-04-30 14:15 24.21876 45.24466 33743 ft 401 kts 245°
2026-04-30 14:15 24.20649 45.21728 34032 ft 400 kts 244°
2026-04-30 14:16 24.19419 45.18991 34274 ft 400 kts 245°
2026-04-30 14:16 24.18192 45.16258 34540 ft 400 kts 244°
2026-04-30 14:16 24.16965 45.13528 34809 ft 399 kts 244°
2026-04-30 14:16 24.15743 45.10807 35076 ft 398 kts 244°
2026-04-30 14:17 24.14519 45.08085 35310 ft 398 kts 244°
2026-04-30 14:17 24.13295 45.05368 35554 ft 398 kts 244°
2026-04-30 14:17 24.12073 45.02654 35789 ft 398 kts 244°
2026-04-30 14:17 24.10850 44.99939 36026 ft 398 kts 244°
2026-04-30 14:18 24.09630 44.97226 36273 ft 397 kts 244°
2026-04-30 14:18 24.08573 44.94879 36486 ft 396 kts 244°
2026-04-30 14:18 24.06134 44.89476 36941 ft 396 kts 244°
2026-04-30 14:19 24.03686 44.84084 37369 ft 395 kts 244°
2026-04-30 14:19 24.02477 44.81424 37577 ft 395 kts 244°
2026-04-30 14:19 24.01255 44.78738 37787 ft 395 kts 244°
2026-04-30 14:20 24.00033 44.76047 37910 ft 395 kts 244°
2026-04-30 14:20 23.96367 44.67950 37932 ft 397 kts 244°
2026-04-30 14:21 23.93913 44.62548 37929 ft 397 kts 244°
2026-04-30 14:21 23.91997 44.56917 37936 ft 397 kts 256°
2026-04-30 14:22 23.91374 44.53983 37933 ft 397 kts 256°
2026-04-30 14:22 23.89511 44.45164 37936 ft 397 kts 256°
2026-04-30 14:23 23.86997 44.33393 37933 ft 398 kts 256°
2026-04-30 14:24 23.85100 44.24545 37936 ft 399 kts 256°
2026-04-30 14:25 23.82559 44.12740 37944 ft 399 kts 256°
2026-04-30 14:26 23.80649 44.03902 37944 ft 399 kts 256°
2026-04-30 14:27 23.78734 43.95062 37933 ft 399 kts 256°
2026-04-30 14:27 23.77458 43.89161 37942 ft 399 kts 256°
2026-04-30 14:28 23.75520 43.80311 37962 ft 400 kts 256°
2026-04-30 14:28 23.74222 43.74417 37961 ft 399 kts 256°
2026-04-30 14:29 23.71842 43.63632 37966 ft 399 kts 256°
2026-04-30 14:31 23.68380 43.47955 37973 ft 400 kts 256°
2026-04-30 14:31 23.66415 43.39114 37983 ft 400 kts 256°
2026-04-30 14:32 23.64439 43.30277 37984 ft 400 kts 255°
2026-04-30 14:33 23.63125 43.24386 37997 ft 400 kts 256°
2026-04-30 14:33 23.61164 43.15545 37984 ft 400 kts 256°
2026-04-30 14:34 23.59846 43.09653 37993 ft 400 kts 255°
2026-04-30 14:34 23.58515 43.03757 37989 ft 401 kts 255°
2026-04-30 14:35 23.56747 42.95908 37998 ft 401 kts 255°
2026-04-30 14:36 23.55194 42.89018 37997 ft 401 kts 255°
2026-04-30 14:36 23.54085 42.84120 37997 ft 400 kts 255°
2026-04-30 14:37 23.52750 42.78229 38001 ft 400 kts 255°
2026-04-30 14:37 23.51416 42.72338 37997 ft 400 kts 255°
2026-04-30 14:38 23.50078 42.66450 37989 ft 400 kts 255°
2026-04-30 14:38 23.48738 42.60568 38005 ft 400 kts 255°
2026-04-30 14:39 23.47397 42.54687 38002 ft 400 kts 255°
2026-04-30 14:39 23.46053 42.48813 38002 ft 399 kts 255°
2026-04-30 14:40 23.44043 42.40010 38003 ft 399 kts 255°
2026-04-30 14:40 23.42705 42.34146 37978 ft 399 kts 255°
2026-04-30 14:41 23.41359 42.28284 37984 ft 399 kts 255°
2026-04-30 14:41 23.40005 42.22418 37986 ft 400 kts 255°
2026-04-30 14:42 23.38650 42.16553 37997 ft 400 kts 255°
2026-04-30 14:42 23.37300 42.10683 37994 ft 400 kts 255°
2026-04-30 14:43 23.35947 42.04819 37990 ft 400 kts 255°
2026-04-30 14:43 23.34583 41.98960 37992 ft 399 kts 255°
2026-04-30 14:44 23.33226 41.93142 37990 ft 399 kts 255°
2026-04-30 14:44 23.31859 41.87299 37992 ft 398 kts 255°
2026-04-30 14:45 23.30501 41.81457 37992 ft 398 kts 255°
2026-04-30 14:45 23.29139 41.75619 38005 ft 398 kts 255°
2026-04-30 14:46 23.27152 41.70034 38003 ft 399 kts 240°
2026-04-30 14:46 23.24155 41.64962 38002 ft 399 kts 239°
2026-04-30 14:47 23.21156 41.59893 38004 ft 398 kts 239°
2026-04-30 14:47 23.18168 41.54820 37985 ft 399 kts 239°
2026-04-30 14:48 23.15170 41.49744 37991 ft 399 kts 239°
2026-04-30 14:48 23.12156 41.44673 37998 ft 400 kts 239°
2026-04-30 14:49 23.09139 41.39604 38000 ft 400 kts 239°
2026-04-30 14:49 23.06129 41.34527 38016 ft 400 kts 239°
2026-04-30 14:50 23.01617 41.26909 37999 ft 400 kts 239°
2026-04-30 14:51 22.97097 41.19332 38005 ft 401 kts 239°
2026-04-30 14:52 22.92559 41.11717 38027 ft 401 kts 239°
2026-04-30 14:52 22.88017 41.04110 38001 ft 400 kts 239°
2026-04-30 14:53 22.83464 40.96504 38010 ft 401 kts 239°
2026-04-30 14:54 22.77388 40.86358 38029 ft 401 kts 239°
2026-04-30 14:55 22.72821 40.78763 38013 ft 401 kts 238°
2026-04-30 14:56 22.66760 40.68665 38029 ft 401 kts 238°
2026-04-30 14:57 22.62181 40.61076 38043 ft 402 kts 239°
2026-04-30 14:58 22.56074 40.50948 37526 ft 401 kts 238°
2026-04-30 14:58 22.54547 40.48420 37272 ft 402 kts 238°
2026-04-30 14:58 22.51486 40.43363 36786 ft 402 kts 239°
2026-04-30 14:59 22.48424 40.38295 35468 ft 404 kts 239°
2026-04-30 15:00 22.43764 40.30597 32993 ft 411 kts 240°
2026-04-30 15:00 22.40632 40.25437 31705 ft 406 kts 240°
2026-04-30 15:01 22.37569 40.20398 30580 ft 397 kts 240°
2026-04-30 15:01 22.36567 40.18748 30214 ft 395 kts 240°
2026-04-30 15:01 22.33085 40.13013 28879 ft 385 kts 240°
2026-04-30 15:02 22.31625 40.10611 28362 ft 380 kts 240°
2026-04-30 15:02 22.30203 40.08272 27848 ft 376 kts 240°
2026-04-30 15:03 22.25964 40.01324 26320 ft 364 kts 239°
2026-04-30 15:03 22.23188 39.96783 25253 ft 361 kts 239°
2026-04-30 15:04 22.20449 39.92295 24344 ft 352 kts 239°
2026-04-30 15:04 22.16576 39.85945 23362 ft 333 kts 239°
2026-04-30 15:05 22.12757 39.79696 22296 ft 331 kts 239°
2026-04-30 15:06 22.10227 39.75572 21331 ft 329 kts 239°
2026-04-30 15:06 22.07713 39.71472 20379 ft 323 kts 239°
2026-04-30 15:07 22.05263 39.67481 19461 ft 316 kts 239°
2026-04-30 15:07 22.02853 39.63555 18546 ft 313 kts 239°
2026-04-30 15:08 22.00445 39.59629 17685 ft 312 kts 238°
2026-04-30 15:08 21.96868 39.53810 16334 ft 306 kts 238°
2026-04-30 15:09 21.94541 39.50032 15352 ft 299 kts 239°
2026-04-30 15:09 21.92710 39.46070 14723 ft 299 kts 245°
2026-04-30 15:10 21.90907 39.42012 13821 ft 305 kts 245°
2026-04-30 15:11 21.87185 39.33671 11866 ft 309 kts 245°
2026-04-30 15:11 21.85339 39.29530 10956 ft 309 kts 245°
2026-04-30 15:12 21.82344 39.23404 9568 ft 311 kts 226°
2026-04-30 15:13 21.78323 39.22208 8627 ft 305 kts 170°
2026-04-30 15:14 21.71121 39.25722 6937 ft 265 kts 158°
2026-04-30 15:14 21.66241 39.27881 5834 ft 249 kts 162°
2026-04-30 15:16 21.58222 39.31054 4222 ft 233 kts 162°
2026-04-30 15:17 21.52336 39.33355 3696 ft 223 kts 162°
2026-04-30 15:18 21.45305 39.36109 3032 ft 202 kts 162°
2026-04-30 15:19 21.41395 39.36119 3041 ft 191 kts 225°